Mount Carmel, IL

12:33 PM CDT on October 19, 2017 (GMT -0500)
Mount Carmel Municipal

Weather History for KAJG - January, 2014

Change the Weather History Date:

Sunday, January 5, 2014

  Actual Average (KLWV) Record (KLWV)
Temperature  
Mean Temperature 21 °F -  
Max Temperature 37 °F 37 °F 59 °F (1998)
Min Temperature 5 °F 22 °F 0 °F (1999)
Degree Days  
Heating Degree Days 44    
Moisture  
Dew Point 25 °F    
Average Humidity 92    
Maximum Humidity 100    
Minimum Humidity 70    
Precipitation  
Precipitation 0.43 in - - ()
Sea Level Pressure  
Sea Level Pressure 29.87 in    
Wind  
Wind Speed 8 mph (North)    
Max Wind Speed 31 mph    
Max Gust Speed 45 mph    
Visibility 4 miles    
Events Rain , Snow    
Averages and records for this station are not official NWS values.
T = Trace of Precipitation, MM = Missing Value Source: NWS Daily Summary

Daily Weather History Graph

Daily Weather History Graph

Search for Another Location

Airport or City:

Trip Planner

Search our weather history database for the weather conditions in past years. The results will help you decide how hot, cold, wet, or windy it might be!

Date:

Astronomy

Jan. 05, 2014 Rise Set
Actual Time 7:09 AM CST 4:43 PM CST
Civil Twilight 6:39 AM CST 5:13 PM CST
Nautical Twilight 6:06 AM CST 5:46 PM CST
Astronomical Twilight 5:34 AM CST 6:18 PM CST
Moon 9:54 AM CST (1/5) 10:07 PM CST (1/5)
Length of Visible Light 10h 34m
Length of Day
9h 34m
Waxing Crescent, 25% of the Moon is Illuminated
Jan 5
Waxing Crescent
Jan 7
First Quarter
Jan 15
Full
Jan 23
Last Quarter
Jan 30
New

Hourly Weather History & Observations

Time (CST) Temp. Windchill Dew Point Humidity Pressure Visibility Wind Dir Wind Speed Gust Speed Precip Events Conditions
12:15 AM 37.4 °F 32.1 °F 28.4 °F 70% 30.00 in 10.0 mi SSW 6.9 mph 10.4 mph N/A   Overcast
12:35 AM 35.6 °F - 28.4 °F 75% 30.00 in 10.0 mi Calm Calm - N/A   Overcast
12:55 AM 35.6 °F - 28.4 °F 75% 30.00 in 10.0 mi Calm Calm - N/A   Overcast
1:15 AM 35.6 °F - 30.2 °F 81% 29.99 in 10.0 mi Calm Calm - N/A   Light Drizzle
1:35 AM 35.6 °F - 30.2 °F 81% 29.99 in 10.0 mi Calm Calm - N/A   Overcast
1:55 AM 35.6 °F - 30.2 °F 81% 29.99 in 10.0 mi Calm Calm - N/A   Overcast
2:15 AM 33.8 °F - 30.2 °F 87% 29.99 in 10.0 mi Calm Calm - N/A   Overcast
2:35 AM 33.8 °F - 32.0 °F 93% 29.98 in 10.0 mi Calm Calm - N/A   Light Drizzle
2:55 AM 33.8 °F 28.6 °F 32.0 °F 93% 29.96 in 10.0 mi ESE 5.8 mph - N/A Rain Rain
3:15 AM 33.8 °F - 32.0 °F 93% 29.96 in 10.0 mi Calm Calm - N/A   Overcast
3:35 AM 33.8 °F - 32.0 °F 93% 29.94 in 10.0 mi Calm Calm - N/A   Overcast
3:55 AM 33.8 °F 28.6 °F 32.0 °F 93% 29.93 in 10.0 mi East 5.8 mph - N/A   Light Drizzle
4:15 AM 33.8 °F 29.6 °F 32.0 °F 93% 29.93 in 10.0 mi East 4.6 mph - N/A Rain Rain
4:35 AM 33.8 °F - 32.0 °F 93% 29.92 in 7.0 mi Calm Calm - N/A Rain Light Rain
4:55 AM 32.0 °F - 32.0 °F 100% 29.93 in 2.5 mi Calm Calm - 0.01 in Rain Rain
5:15 AM 32.0 °F - 32.0 °F 100% 29.91 in 4.0 mi Calm Calm - 0.01 in Rain Light Rain
5:35 AM 32.0 °F 26.4 °F 32.0 °F 100% 29.90 in 3.0 mi ENE 5.8 mph - 0.01 in Rain Rain
5:55 AM 32.0 °F 26.4 °F 32.0 °F 100% 29.89 in 3.0 mi ENE 5.8 mph - 0.03 in Rain Light Rain
6:15 AM 32.0 °F 25.6 °F 32.0 °F 100% 29.89 in 2.5 mi ENE 6.9 mph - N/A Rain Light Rain
6:35 AM 32.0 °F 25.6 °F 32.0 °F 100% 29.88 in 2.5 mi ENE 6.9 mph - 0.01 in Rain Light Rain
6:55 AM 32.0 °F 24.8 °F 32.0 °F 100% 29.87 in 2.5 mi ENE 8.1 mph - 0.02 in   Overcast
7:15 AM 33.8 °F 26.4 °F 32.0 °F 93% 29.85 in 2.5 mi East 9.2 mph - 0.01 in Rain Light Rain
7:35 AM 33.8 °F 27.0 °F 32.0 °F 93% 29.85 in 2.5 mi East 8.1 mph - 0.02 in Rain Rain
7:55 AM 33.8 °F 27.0 °F 32.0 °F 93% 29.84 in 2.5 mi East 8.1 mph - 0.02 in Rain Light Rain
8:15 AM 33.8 °F 27.7 °F 33.8 °F 100% 29.84 in 1.5 mi East 6.9 mph - 0.01 in   Overcast
8:35 AM 33.8 °F 27.7 °F 33.8 °F 100% 29.82 in 1.5 mi East 6.9 mph - 0.01 in   Overcast
8:55 AM 33.8 °F 29.6 °F 33.8 °F 100% 29.82 in 2.0 mi East 4.6 mph - 0.02 in Rain Rain
9:15 AM 33.8 °F 29.6 °F 33.8 °F 100% 29.81 in 1.0 mi East 4.6 mph - 0.01 in Rain Light Rain
9:35 AM 33.8 °F 28.6 °F 33.8 °F 100% 29.80 in 1.2 mi East 5.8 mph - 0.02 in Snow Light Snow
9:55 AM 33.8 °F 28.6 °F 33.8 °F 100% 29.79 in 1.2 mi East 5.8 mph - 0.03 in Rain Rain
10:15 AM 33.8 °F 27.0 °F 33.8 °F 100% 29.76 in 1.8 mi East 8.1 mph - 0.01 in Rain Light Rain
10:35 AM 33.8 °F 28.6 °F 33.8 °F 100% 29.76 in 2.0 mi East 5.8 mph - 0.01 in Rain Rain
10:55 AM 33.8 °F 28.6 °F 33.8 °F 100% 29.74 in 2.5 mi ENE 5.8 mph - 0.02 in Rain Rain
11:15 AM 33.8 °F - 33.8 °F 100% 29.71 in 1.2 mi Calm Calm - 0.01 in   Overcast
11:35 AM 33.8 °F 30.8 °F 33.8 °F 100% 29.70 in 1.2 mi NNE 3.5 mph - 0.02 in   Overcast
11:55 AM 33.8 °F 28.6 °F 33.8 °F 100% 29.68 in 1.5 mi North 5.8 mph - 0.02 in Rain Rain
12:15 PM 33.8 °F 27.0 °F 32.0 °F 93% 29.66 in 1.8 mi North 8.1 mph - N/A Rain Rain
12:35 PM 32.0 °F 24.2 °F 32.0 °F 100% 29.66 in 2.0 mi North 9.2 mph - 0.01 in Rain Rain
12:55 PM 32.0 °F 24.8 °F 32.0 °F 100% 29.65 in 2.5 mi North 8.1 mph - 0.03 in Rain Light Rain
1:15 PM 32.0 °F 24.8 °F 32.0 °F 100% 29.64 in 2.5 mi North 8.1 mph - 0.01 in Rain Light Rain
1:35 PM 32.0 °F 24.8 °F 32.0 °F 100% 29.63 in 1.5 mi North 8.1 mph - 0.02 in Snow Light Snow
1:55 PM 32.0 °F 24.2 °F 32.0 °F 100% 29.62 in 2.0 mi North 9.2 mph - 0.04 in Snow Light Snow
2:15 PM 32.0 °F 23.0 °F 32.0 °F 100% 29.63 in 0.8 mi NNW 11.5 mph - 0.01 in Snow Light Snow
2:35 PM 32.0 °F 23.6 °F 32.0 °F 100% 29.64 in 1.2 mi NNW 10.4 mph - 0.02 in Snow Light Snow
2:55 PM 30.2 °F 18.1 °F 30.2 °F 100% 29.66 in 0.8 mi NNW 18.4 mph 23.0 mph 0.04 in Snow Light Snow
3:15 PM 28.4 °F 14.4 °F 26.6 °F 93% 29.66 in 0.5 mi NNW 23.0 mph 33.4 mph 0.01 in Snow Light Snow
3:35 PM 26.6 °F 12.7 °F 24.8 °F 93% 29.70 in 0.5 mi NNW 20.7 mph 31.1 mph 0.02 in Snow Snow
3:55 PM 26.6 °F 13.4 °F 23.0 °F 86% 29.70 in 0.5 mi NNW 18.4 mph 32.2 mph 0.03 in Snow Snow
4:15 PM 24.8 °F 10.7 °F 23.0 °F 93% 29.71 in 0.5 mi NNW 19.6 mph 34.5 mph N/A Snow Light Snow
4:35 PM 23.0 °F 8.0 °F 21.2 °F 93% 29.73 in 1.0 mi NNW 20.7 mph 32.2 mph 0.01 in Snow Light Snow
4:55 PM 23.0 °F 6.9 °F 21.2 °F 93% 29.75 in 1.5 mi NW 24.2 mph 29.9 mph 0.02 in Snow Light Snow
5:15 PM 21.2 °F 4.5 °F 19.4 °F 93% 29.77 in 0.8 mi NNW 24.2 mph 32.2 mph 0.01 in Snow Snow
5:35 PM 21.2 °F 4.5 °F 19.4 °F 93% 29.80 in 1.0 mi NNW 24.2 mph 32.2 mph 0.02 in Snow Snow
5:55 PM 19.4 °F 1.4 °F 17.6 °F 93% 29.83 in 1.2 mi NW 26.5 mph 34.5 mph 0.03 in Snow Light Snow
6:15 PM 19.4 °F 1.1 °F 15.8 °F 86% 29.84 in 1.2 mi NW 27.6 mph 33.4 mph 0.01 in Snow Light Snow
6:35 PM 17.6 °F -2.2 °F 14.0 °F 86% 29.86 in 1.2 mi NNW 31.1 mph 44.9 mph 0.02 in Snow Light Snow
6:55 PM 17.6 °F -1.0 °F 14.0 °F 86% 29.90 in 1.5 mi NW 26.5 mph 39.1 mph 0.03 in Snow Light Snow
7:15 PM 17.6 °F 0.5 °F 14.0 °F 86% 29.93 in 1.0 mi NW 21.9 mph 33.4 mph N/A Snow Snow
7:35 PM 15.8 °F -3.7 °F 12.2 °F 86% 29.95 in 1.0 mi NW 27.6 mph 35.7 mph N/A Snow Snow
7:55 PM 14.0 °F -5.1 °F 12.2 °F 93% 29.97 in 2.0 mi NW 24.2 mph 32.2 mph 0.01 in Snow Light Snow
8:15 PM 14.0 °F -3.4 °F 10.4 °F 86% 29.99 in 1.0 mi NW 19.6 mph 29.9 mph N/A Snow Light Snow
8:35 PM 12.2 °F -8.2 °F 10.4 °F 92% 30.01 in 0.8 mi NW 26.5 mph 39.1 mph N/A Snow Snow
8:55 PM 12.2 °F -9.3 °F 8.6 °F 85% 30.03 in 0.8 mi NW 29.9 mph 44.9 mph 0.01 in Snow Snow
9:15 PM 12.2 °F -6.7 °F 8.6 °F 85% 30.05 in 1.8 mi NW 21.9 mph 32.2 mph N/A Snow Light Snow
9:35 PM 10.4 °F -9.1 °F 8.6 °F 92% 30.06 in 1.5 mi NW 21.9 mph 36.8 mph N/A Snow Light Snow
9:55 PM 10.4 °F -11.0 °F 5.0 °F 79% 30.07 in 1.8 mi NW 27.6 mph 41.4 mph N/A Snow Light Snow
10:15 PM 10.4 °F -9.5 °F 5.0 °F 79% 30.09 in 3.0 mi NW 23.0 mph 39.1 mph 0.01 in Snow Light Snow
10:35 PM 8.6 °F -13.1 °F 3.2 °F 79% 30.11 in 3.0 mi NW 26.5 mph 36.8 mph 0.01 in Snow Light Snow
10:55 PM 8.6 °F -11.4 °F 1.4 °F 73% 30.13 in 5.0 mi NW 21.9 mph 35.7 mph 0.01 in   Haze
11:15 PM 6.8 °F -14.3 °F -0.4 °F 72% 30.14 in 7.0 mi NW 23.0 mph 35.7 mph N/A   Mostly Cloudy
11:35 PM 5.0 °F -17.1 °F -0.4 °F 78% 30.16 in 7.0 mi WNW 24.2 mph 34.5 mph N/A   Mostly Cloudy
11:55 PM 5.0 °F -18.7 °F -2.2 °F 72% 30.16 in 5.0 mi NW 28.8 mph 38.0 mph 0.01 in   Haze